Location: Tabor
(49.4170°N, 14.6670°E)
Time: 03:12:49
(UTC+01:00)

ISS - Visible Passes

Search period start: 22 January 2019 00:00
Search period end: 01 February 2019 00:00
Orbit: 404 x 410 km, 51.6° (Epoch: 22 January)

Date Brightness Start Highest point End Pass type
(mag) Time Alt. Az. Time Alt. Az. Time Alt. Az.
22 Jan -0.7 19:29:54 10° SW 19:30:01 11° SW 19:30:01 11° SW visible
23 Jan -2.1 18:39:04 10° SSW 18:41:05 22° SSE 18:41:05 22° SSE visible
24 Jan -1.7 17:48:37 10° S 17:50:39 15° SE 17:52:04 12° ESE visible
24 Jan -1.5 19:23:27 10° WSW 19:24:48 22° SW 19:24:48 22° SW visible
25 Jan -3.4 18:32:16 10° SW 18:35:26 45° SSE 18:35:43 44° SE visible
26 Jan -2.6 17:41:15 10° SSW 17:44:11 29° SE 17:46:33 14° E visible
26 Jan -2.2 19:17:14 10° WSW 19:19:16 35° W 19:19:16 35° W visible
27 Jan -3.9 18:25:51 10° WSW 18:29:08 80° SSE 18:30:03 45° E visible
27 Jan -0.3 20:02:34 10° W 20:02:46 11° W 20:02:46 11° W visible
28 Jan -3.4 17:34:34 10° SW 17:37:47 55° SSE 17:40:47 12° ENE visible
28 Jan -2.6 19:11:05 10° W 19:13:30 42° WNW 19:13:30 42° WNW visible
29 Jan -3.7 18:19:37 10° W 18:22:54 70° NNW 18:24:13 33° ENE visible
29 Jan -0.5 19:56:22 10° WNW 19:56:55 14° WNW 19:56:55 14° WNW visible
30 Jan -3.8 17:28:09 10° WSW 17:31:27 89° NNW 17:34:47 10° ENE visible
30 Jan -3.0 19:04:54 10° WNW 19:07:36 47° NW 19:07:36 47° NW visible
31 Jan -3.5 18:13:24 10° W 18:16:40 57° N 18:18:17 26° ENE visible
31 Jan -0.9 19:50:05 10° WNW 19:50:59 17° WNW 19:50:59 17° WNW visible
